Regional Weather Roundup
Issued by NWS Northern Indiana

Home | Current Version | Previous Version | Graphics & Text | Print | Product List | Glossary On
Versions: 1 2 3 4 5 6 7 8 9 10 11 12 13 14 15 16 17 18 19 20 21 22 23 24 25 26 27 28 29 30 31 32 33 34 35 36 37 38 39 40 41 42 43 44 45 46 47 48 49 50
821
ASUS43 KIWX 251400
RWRIWX

KIWX WEATHER ROUNDUP
NATIONAL WEATHER SERVICE NORTHERN INDIANA
1000 AM EDT THU MAY 25 2017

NOTE: "FAIR" INDICATES FEW OR NO CLOUDS BELOW 12,000 FEET WITH NO
SIGNIFICANT WEATHER AND/OR OBSTRUCTIONS TO VISIBILITY.

* THESE STATIONS ARE NOT UNDER NWS QUALITY CONTROL. THEY ALSO MAY NOT
  REPORT WEATHER SUCH AS PRECIPITATION OR FOG.

INZ001>027-251500-
NORTHERN INDIANA

CITY           SKY/WX    TMP DP  RH WIND       PRES   REMARKS
GARY*          CLOUDY    52  50  93 NW17G29   29.61R FOG
MICHIGAN CITY* CLOUDY    50  50 100 N9        29.57R
SOUTH BEND     CLOUDY    56  55  97 N12       29.54R
GOSHEN         CLOUDY    60  55  83 N13       29.51R
MONTICELLO*    CLOUDY    55  53  95 NW17G23   29.54R FOG
ANGOLA*        CLOUDY    57  46  67 N7        29.48R
FORT WAYNE     LGT RAIN  61  58  90 N12       29.46R

$$
INZ028>050-251500-
CENTRAL INDIANA

CITY           SKY/WX    TMP DP  RH WIND       PRES   REMARKS
LAFAYETTE      CLOUDY    58  56  93 NW18G24   29.54R
KOKOMO*        CLOUDY    59  57  93 N16       29.50R
MUNCIE*        CLOUDY    62  59  90 N13       29.44R
INDIANAPOLIS   DRIZZLE   56  55  97 NW20      29.51R FOG

$$
MIZ043>046-050>051-056>058-064>065-071>073-077>080-251500-
SOUTHWEST LOWER MICHIGAN

CITY           SKY/WX    TMP DP  RH WIND       PRES   REMARKS
BATTLE CREEK   CLOUDY    57  56  96 N7        29.52R
BENTON HARBOR  CLOUDY    55  52  89 VRB5      29.55R
COLDWATER*     CLOUDY    59  59 100 N8        29.49S FOG
HILLSDALE*     CLOUDY    55  54  94 N7        29.48R FOG
HOLLAND        CLOUDY    59  54  83 N8        29.55R
GRAND RAPIDS   CLOUDY    58  57  97 NE9       29.54R
KALAMAZOO      CLOUDY    58  54  86 N9        29.53R FOG
STURGIS*       CLOUDY    57  56  97 N10       29.49S FOG
THREE RIVERS*  CLOUDY    58  56  94 N6        29.51S FOG

$$
OHZ001>008-015>018-024>025-251500-
NORTHWEST OHIO

CITY           SKY/WX    TMP DP  RH WIND       PRES   REMARKS
DEFIANCE       CLOUDY    59  57  93 N8        29.46R FOG
FINDLAY        CLOUDY    64  56  75 E7        29.42R
TOLEDO EXPRESS PTSUNNY   61  59  93 NE8       29.45R
TOLEDO METCALF CLOUDY    63  60  90 N7        29.46R
LIMA           PTSUNNY   63  60  90 NE6       29.43R

$$
AND FOR LAKE MICHIGAN COASTAL AND OPEN LAKE BUOY OBSERVATIONS

STATION/POSITION TEMP    WIND        PRES    VSBY  WAVE
                 AIR SEA DIR/SP/G                  HT/PER
                 (F)     (DEG/KT/KT) (MB)    (MI)  (FT/S)
CALUMET HARBOR    52     320/ 10/ 16 1002.0R
MICHIGAN CITY     49     330/ 20/ 21   N/A
BURNS HARBOR      50     330/ 16/ 21 1002.0R
SOUTH LAKE BUOY   46 45  360/ 14/ 16 1001.4          3/ 5
4 MI NW BRIDGMAN  53 56   20/ 16/ 19 1001.2R         5/ 5
MICHIGAN CITY     49 52  330/ 16/ 19   N/A           5/ 5

$$
&&




USA.gov is the U.S. government's official web portal to all federal, state and local government web resources and services.